TimeEST,TemperatureF,Dew PointF,Humidity,Sea Level PressureIn,VisibilityMPH,Wind Direction,Wind SpeedMPH,Gust SpeedMPH,PrecipitationIn,Events,Conditions,WindDirDegrees,DateUTC
12:54 AM,48.0,44.1,86,29.97,10.0,West,8.1,-,N/A,,Mostly Cloudy,270,2012-12-09 05:54:00
1:54 AM,48.0,43.0,83,30.00,10.0,West,11.5,-,N/A,,Scattered Clouds,280,2012-12-09 06:54:00
2:54 AM,46.9,42.1,83,30.02,10.0,West,9.2,-,N/A,,Partly Cloudy,280,2012-12-09 07:54:00
3:54 AM,46.9,42.1,83,30.05,10.0,West,11.5,-,N/A,,Partly Cloudy,270,2012-12-09 08:54:00
4:54 AM,46.9,39.9,77,30.07,10.0,West,9.2,-,N/A,,Clear,280,2012-12-09 09:54:00
5:54 AM,45.0,39.0,80,30.12,10.0,WNW,8.1,-,N/A,,Clear,300,2012-12-09 10:54:00
6:54 AM,44.1,37.9,79,30.16,10.0,WNW,10.4,-,N/A,,Partly Cloudy,300,2012-12-09 11:54:00
7:54 AM,44.1,36.0,73,30.20,10.0,NW,8.1,-,N/A,,Mostly Cloudy,320,2012-12-09 12:54:00
8:54 AM,45.0,35.1,68,30.23,10.0,NW,6.9,-,N/A,,Mostly Cloudy,320,2012-12-09 13:54:00
9:54 AM,44.1,34.0,68,30.26,10.0,North,12.7,18.4,N/A,,Mostly Cloudy,350,2012-12-09 14:54:00
10:54 AM,44.1,32.0,63,30.26,10.0,North,12.7,-,N/A,,Overcast,360,2012-12-09 15:54:00
11:54 AM,44.1,30.0,58,30.24,10.0,NNW,11.5,-,N/A,,Overcast,330,2012-12-09 16:54:00
12:54 PM,44.1,28.0,53,30.24,10.0,North,5.8,-,N/A,,Overcast,360,2012-12-09 17:54:00
1:54 PM,44.1,28.0,53,30.25,10.0,North,4.6,-,N/A,,Overcast,350,2012-12-09 18:54:00
2:54 PM,43.0,28.0,56,30.27,10.0,NE,5.8,-,N/A,,Mostly Cloudy,40,2012-12-09 19:54:00
3:54 PM,41.0,28.9,62,30.27,10.0,ENE,3.5,-,N/A,,Mostly Cloudy,60,2012-12-09 20:54:00
4:54 PM,41.0,30.0,65,30.27,10.0,East,3.5,-,N/A,,Overcast,80,2012-12-09 21:54:00
5:54 PM,42.1,32.0,67,30.29,10.0,NE,3.5,-,N/A,,Overcast,50,2012-12-09 22:54:00
6:54 PM,42.1,32.0,67,30.30,10.0,NE,6.9,-,N/A,,Overcast,40,2012-12-09 23:54:00
7:54 PM,43.0,33.1,68,30.28,10.0,East,10.4,-,N/A,,Overcast,100,2012-12-10 00:54:00
8:54 PM,43.0,34.0,71,30.25,10.0,East,12.7,-,0.00,Rain,Light Rain,100,2012-12-10 01:54:00
9:54 PM,43.0,35.1,74,30.24,10.0,East,10.4,-,0.00,Rain,Light Rain,100,2012-12-10 02:54:00
10:54 PM,43.0,37.9,82,30.21,6.0,ESE,11.5,-,0.03,Rain,Light Rain,120,2012-12-10 03:54:00
11:54 PM,43.0,39.0,86,30.18,6.0,SE,12.7,-,0.04,Rain,Rain,140,2012-12-10 04:54:00